SPACEMOBILE-004

Last updated on Tue Oct 08 2024 00:02:04 GMT+0000 (Coordinated Universal Time)

1 61049U 24163E 24281.45290990 .00016052 00000+0 79165-3 0 9995 2 61049 52.9781 267.0390 0013879 50.7570 309.4652 15.18007481 3808
UTC large
Height (km)
Speed (km/s)
/
Latitude / Longitude
Inclination (degrees)
Orbital Period (minutes)
Azimuth
Elevation
Range (km)
Doppler Factor

Next 0 passes for location: London (51.5072 / 0.1276)

Sorry there are no passes over London.